[[{"header":{"parameterUnit":"m.s-1","parameterCategory":1,"la1":30.2991,"la2":30.254,"lo1":-89.0895,"lo2":-89.0444,"dy":0.0017,"dx":0.0017,"nx":28,"ny":28,"refTime":"2023-04-12T21:00:00:Z","depth":0,"parameterNumber":2,"parameterNumberName":"U-component_of_WINDS"},"data":[0,0,0,0,0,0,0,0,0,0,0,0,0,0,0,0,0,0,0,0,0,0,0,0,0,0,0,0,0,0,0,0,0,0,0,0,0,0,0,0,0,0,0,0,0,0,0,0,0,0,0,0,0,0,0,0,0,0,4.357,4.3571,0,4.3656,4.3657,4.3658,4.3623,4.3621,4.3619,4.3617,4.371,4.3714,4.3718,0,0,0,0,0,0,0,0,0,0,0,0,0,4.338,4.3384,4.357,4.3571,4.3572,4.3656,4.3657,4.3658,4.3624,4.3621,4.3619,4.3616,4.3708,4.3714,4.3719,0,0,0,0,0,0,0,0,0,0,0,0,0,4.3464,4.3385,4.357,4.3565,4.3565,4.3656,4.3657,4.3659,4.3624,4.3621,4.3618,4.3615,4.3707,4.3713,4.372,4.3822,0,0,4.374,4.3742,0,0,0,0,0,0,0,0,4.3459,4.3471,4.3564,4.3565,4.3566,4.3626,4.3624,4.3714,4.3625,4.3602,4.3617,4.3613,4.3685,4.3693,4.3716,4.3826,4.383,4.374,4.3744,4.3747,4.3749,0,0,0,0,0,0,0,4.3454,4.3467,4.3604,4.3566,4.3567,4.356,4.3568,4.3641,4.366,4.3604,4.3601,4.3612,4.3684,4.371,4.3718,4.3831,4.374,4.3746,4.375,4.3752,4.4032,4.4035,0,0,0,0,0,0,4.3447,4.3463,4.3601,4.3607,4.3504,4.3566,4.3575,4.361,4.3659,4.3663,4.3614,4.361,4.37,4.371,4.3721,4.3846,4.3747,4.3753,4.3757,4.4029,4.4033,4.4037,0,0,0,0,0,0,4.3443,4.346,4.3598,4.3534,4.3551,4.3572,4.3611,4.3613,4.3638,4.3667,4.367,4.3636,4.3698,4.3712,4.3797,4.3848,4.3756,4.3762,4.4025,4.403,4.4035,4.4095,0,0,0,0,0,0,4.3438,4.3458,4.3496,4.3535,4.3555,4.3672,4.3614,4.3617,4.3649,4.3644,4.3688,4.3693,4.3697,4.3787,4.3804,4.3856,4.3767,4.402,4.4027,4.4033,4.4089,4.4102,4.4113,0,0,0,0,0,4.3431,4.351,4.3498,4.3515,4.3602,4.3674,4.3686,4.3687,4.3653,4.3693,4.3711,4.3691,4.384,4.3797,4.3814,4.3869,4.4017,4.4025,4.4033,4.4083,4.4099,4.4113,0,0,0,0,0,0,4.3479,4.3515,4.3503,4.3596,4.3633,4.3668,4.3718,4.3704,4.3751,4.3745,4.3746,4.3756,4.3845,4.3865,4.3817,4.3972,4.3923,4.3935,4.3956,4.3971,4.3983,4.3977,4.3773,0,0,0,0,0,4.3499,4.3554,4.3583,4.3664,4.3682,4.3697,4.3728,4.3726,4.3764,4.378,4.3805,4.3844,4.3899,4.3936,4.3988,4.409,4.4101,4.4137,4.4149,4.4159,4.417,4.4228,4.4245,4.4062,4.4062,4.4062,0,0,4.3544,4.3571,4.3606,4.3674,4.3701,4.376,4.371,4.3773,4.3817,4.379,4.3872,4.3892,4.3935,4.403,4.4073,4.405,4.4223,4.4169,4.4177,4.4183,4.4238,4.4256,4.4271,4.4068,4.4067,4.4066,0,0,4.3656,4.3681,4.3751,4.378,4.3822,4.3831,4.3848,4.3886,4.3898,4.398,4.3962,4.4014,4.4109,4.4142,4.4171,4.4295,4.428,4.4312,4.4377,4.4433,4.4448,4.4461,4.4508,4.4524,4.4323,4.4323,4.4323,0,4.3707,4.3792,4.379,4.3854,4.3886,4.3863,4.3936,4.3964,4.4021,4.4045,4.4017,4.4137,4.4164,4.4268,4.4298,4.4321,4.4343,4.4308,4.4445,4.4458,4.447,4.4515,4.4533,4.4327,4.4326,4.4326,4.4325,0,4.3854,4.3913,4.3965,4.4021,4.4058,4.4127,4.4136,4.4174,4.4169,4.4182,4.4267,4.4299,4.4359,4.4382,4.4378,4.4486,4.4471,4.4444,4.4396,4.4492,4.4534,4.4551,4.4332,4.4331,4.433,4.4329,0,0,4.4,4.4052,4.4072,4.4098,4.4142,4.4189,4.4257,4.4314,4.4348,4.4388,4.4447,4.4528,4.4504,4.4537,4.4536,4.4586,4.4685,4.4554,4.4555,4.4579,4.4809,4.4831,4.4851,4.4674,4.4677,4.468,4.4807,0,4.4117,4.4235,4.4235,4.4345,4.4401,4.438,4.4439,4.4475,4.4488,4.4539,4.4555,4.4613,4.4576,4.4596,4.4643,4.4663,4.4732,4.4654,4.4732,4.4735,4.4724,4.4872,4.4895,4.5013,4.4823,4.4826,4.4828,0,4.427,4.4315,4.443,4.4468,4.4492,4.4545,4.4598,4.4646,4.4686,4.4692,4.4729,4.4721,4.4792,4.474,4.484,4.4787,4.4818,4.4833,4.4838,4.4847,4.4789,4.4889,4.505,4.5069,4.4853,4.4851,4.4849,0,4.4369,4.4457,4.4538,4.4561,4.4606,4.4644,4.4665,4.4702,4.4736,4.4783,4.4806,4.486,4.4891,4.4934,4.4942,4.4902,4.5043,4.4991,4.5053,4.5053,4.5086,4.5084,4.5258,4.5102,4.5102,4.5101,4.5101,0,4.4501,4.4574,4.4583,4.4634,4.4714,4.4714,4.4794,4.4812,4.4845,4.4899,4.4884,4.4936,4.4941,4.4995,4.5001,4.5085,4.5098,4.5107,4.5109,4.5111,4.511,4.5133,4.5127,4.5106,4.5105,4.5104,4.5103,0,4.4626,4.4635,4.4722,4.4758,4.4768,4.4827,4.4858,4.4907,4.4918,4.4988,4.5004,4.5023,4.5086,4.5097,4.5172,4.5176,4.5277,4.5268,4.5263,4.5263,4.5326,4.5321,4.5523,4.555,4.5374,4.5375,4.5377,0,4.4712,4.4767,4.4808,4.4842,4.4865,4.4921,4.4956,4.4958,4.4996,4.5045,4.5089,4.515,4.5199,4.5301,4.5323,4.538,4.5375,4.5442,4.5384,4.5384,4.538,4.5377,4.5384,4.5454,4.5456,4.5457,4.5459,0,4.4864,4.4865,4.4916,4.4969,4.501,4.5052,4.5092,4.5121,4.5128,4.5172,4.5235,4.5273,4.5349,4.5411,4.5468,4.5491,4.5478,4.5476,4.5494,4.5498,4.5494,4.55,4.5297,4.5472,4.5471,4.547,4.5469,4.5469,4.4974,4.5022,4.5059,4.5116,4.5145,4.5183,4.5231,4.5248,4.5301,4.5362,4.5359,4.543,4.547,4.5544,4.5571,4.5628,4.5607,4.5632,4.5639,4.5646,4.5654,4.5482,4.5638,4.5638,4.5637,4.5637,4.5637,0,4.5128,4.515,4.5202,4.5257,4.5303,4.5283,4.5326,4.5366,4.5428,4.5465,4.5513,4.5587,4.5647,4.5673,4.5733,4.5773,4.5769,4.5789,4.5788,4.5794,4.5668,4.5648,4.5792,4.5792,4.5792,4.5792,4.5792,4.5792,4.5213,4.5295,4.5301,4.5398,4.542,4.5488,4.5514,4.555,4.5579,4.5662,4.5711,4.5727,4.5761,4.5822,4.5877,4.5883,4.5908,4.5932,4.5936,4.5818,4.5802,4.5788,4.5769,4.5936,4.5936,4.6057,4.6058,4.6059]},{"header":{"parameterUnit":"m.s-1","parameterCategory":1,"la1":30.2991,"la2":30.254,"lo1":-89.0895,"lo2":-89.0444,"dy":0.0017,"dx":0.0017,"nx":28,"ny":28,"refTime":"2023-04-12T21:00:00:Z","depth":0,"parameterNumber":3,"parameterNumberName":"V-component_of_WINDS"},"data":[0,0,0,0,0,0,0,0,0,0,0,0,0,0,0,0,0,0,0,0,0,0,0,0,0,0,0,0,0,0,0,0,0,0,0,0,0,0,0,0,0,0,0,0,0,0,0,0,0,0,0,0,0,0,0,0,0,0,-0.3708,-0.3709,0,-0.3786,-0.3787,-0.3788,-0.383,-0.383,-0.3831,-0.3831,-0.3914,-0.3916,-0.3918,0,0,0,0,0,0,0,0,0,0,0,0,0,-0.3601,-0.3602,-0.3708,-0.3709,-0.371,-0.3786,-0.3787,-0.3788,-0.383,-0.383,-0.3831,-0.3831,-0.3914,-0.3916,-0.3919,0,0,0,0,0,0,0,0,0,0,0,0,0,-0.366,-0.3603,-0.3708,-0.374,-0.3744,-0.3786,-0.3787,-0.3788,-0.383,-0.383,-0.3831,-0.3831,-0.3913,-0.3916,-0.3919,-0.3936,0,0,-0.3929,-0.393,0,0,0,0,0,0,0,0,-0.3656,-0.3664,-0.3735,-0.3738,-0.3742,-0.3799,-0.378,-0.3838,-0.383,-0.3798,-0.3831,-0.3831,-0.3876,-0.3882,-0.3897,-0.394,-0.3943,-0.3929,-0.3931,-0.3932,-0.3933,0,0,0,0,0,0,0,-0.3652,-0.3661,-0.3739,-0.3736,-0.374,-0.3752,-0.3761,-0.3791,-0.3835,-0.3801,-0.3804,-0.3812,-0.3878,-0.3893,-0.3899,-0.3945,-0.3929,-0.3932,-0.3934,-0.3935,-0.4007,-0.4006,0,0,0,0,0,0,-0.3642,-0.3657,-0.3737,-0.3741,-0.3699,-0.3754,-0.3764,-0.378,-0.3835,-0.3843,-0.3812,-0.3814,-0.3888,-0.3895,-0.3902,-0.3926,-0.3932,-0.3935,-0.3937,-0.4007,-0.4007,-0.4006,0,0,0,0,0,0,-0.364,-0.3649,-0.3734,-0.37,-0.3712,-0.3756,-0.3774,-0.3782,-0.3797,-0.3843,-0.3852,-0.3819,-0.3888,-0.3897,-0.3927,-0.3929,-0.3937,-0.394,-0.4007,-0.4007,-0.4006,-0.3973,0,0,0,0,0,0,-0.3637,-0.3648,-0.3654,-0.37,-0.3713,-0.3756,-0.3774,-0.3783,-0.3802,-0.3805,-0.3852,-0.3861,-0.3889,-0.3922,-0.393,-0.3934,-0.3942,-0.4007,-0.4007,-0.4007,-0.3974,-0.3972,-0.397,0,0,0,0,0,-0.3633,-0.3642,-0.3654,-0.3663,-0.3721,-0.3756,-0.3764,-0.3795,-0.3802,-0.3809,-0.3839,-0.3859,-0.3927,-0.3925,-0.3934,-0.3939,-0.4007,-0.4007,-0.4007,-0.3975,-0.3972,-0.397,0,0,0,0,0,0,-0.3597,-0.3649,-0.3662,-0.3687,-0.3716,-0.3763,-0.3773,-0.3791,-0.3821,-0.3823,-0.3862,-0.3872,-0.3898,-0.3922,-0.3917,-0.3959,-0.3969,-0.3971,-0.3942,-0.394,-0.3938,-0.3932,-0.3945,0,0,0,0,0,-0.3591,-0.3613,-0.3658,-0.3676,-0.369,-0.3728,-0.3745,-0.3766,-0.3799,-0.3812,-0.3845,-0.3877,-0.3906,-0.3924,-0.3953,-0.3978,-0.3989,-0.3986,-0.3984,-0.3982,-0.3983,-0.3999,-0.3998,-0.4006,-0.4006,-0.4006,0,0,-0.3581,-0.3612,-0.3624,-0.3669,-0.3695,-0.3718,-0.3739,-0.3763,-0.3781,-0.3817,-0.3846,-0.3871,-0.391,-0.3937,-0.395,-0.3957,-0.3983,-0.3982,-0.398,-0.3982,-0.3998,-0.3998,-0.3997,-0.4006,-0.4006,-0.4006,0,0,-0.3574,-0.3599,-0.3617,-0.3642,-0.368,-0.3705,-0.3709,-0.3753,-0.3771,-0.38,-0.3828,-0.3851,-0.3899,-0.3926,-0.3946,-0.3949,-0.3969,-0.3958,-0.3947,-0.3962,-0.3961,-0.3961,-0.3963,-0.3963,-0.3959,-0.3959,-0.3959,0,-0.3557,-0.3592,-0.3624,-0.3646,-0.3666,-0.3697,-0.3716,-0.3739,-0.3785,-0.3798,-0.3805,-0.3867,-0.3895,-0.3929,-0.393,-0.3945,-0.3952,-0.3953,-0.3958,-0.3958,-0.3958,-0.3961,-0.3961,-0.3957,-0.3957,-0.3958,-0.3958,0,-0.3569,-0.3594,-0.3603,-0.3645,-0.3666,-0.3686,-0.3722,-0.374,-0.3759,-0.3785,-0.3816,-0.3851,-0.3888,-0.3897,-0.3917,-0.3935,-0.3938,-0.3951,-0.3962,-0.3955,-0.3958,-0.3959,-0.3955,-0.3956,-0.3956,-0.3956,0,0,-0.3543,-0.3601,-0.3605,-0.3624,-0.3668,-0.3688,-0.3711,-0.3746,-0.376,-0.3791,-0.3811,-0.3852,-0.3864,-0.3887,-0.391,-0.3923,-0.3924,-0.3935,-0.3936,-0.3932,-0.3946,-0.3937,-0.3937,-0.3937,-0.3938,-0.3938,-0.3943,0,-0.3543,-0.3583,-0.3612,-0.3641,-0.3665,-0.3695,-0.3715,-0.3744,-0.3769,-0.3793,-0.3821,-0.3849,-0.3863,-0.3877,-0.3891,-0.3921,-0.3928,-0.3921,-0.3958,-0.3959,-0.3948,-0.3939,-0.3928,-0.3932,-0.3945,-0.3945,-0.3945,0,-0.3549,-0.3577,-0.3608,-0.365,-0.3661,-0.3677,-0.3712,-0.3734,-0.3769,-0.3786,-0.3811,-0.3835,-0.3862,-0.387,-0.3908,-0.3903,-0.392,-0.3937,-0.3938,-0.3943,-0.3952,-0.3944,-0.3934,-0.3934,-0.3947,-0.3947,-0.3947,0,-0.3527,-0.3573,-0.3597,-0.3613,-0.3662,-0.3674,-0.3695,-0.373,-0.3749,-0.378,-0.3793,-0.3826,-0.3845,-0.3871,-0.3904,-0.3907,-0.3939,-0.395,-0.3955,-0.3954,-0.3961,-0.396,-0.3953,-0.397,-0.397,-0.397,-0.397,0,-0.3524,-0.3542,-0.3588,-0.3603,-0.3625,-0.3659,-0.368,-0.3704,-0.3735,-0.3756,-0.3785,-0.3805,-0.3847,-0.3872,-0.3898,-0.3926,-0.3934,-0.395,-0.3957,-0.3947,-0.3946,-0.396,-0.3961,-0.3971,-0.3971,-0.3971,-0.3971,0,-0.3504,-0.3535,-0.3564,-0.3608,-0.3619,-0.3633,-0.3672,-0.3688,-0.3714,-0.3741,-0.3749,-0.379,-0.3822,-0.3857,-0.39,-0.3918,-0.3944,-0.3954,-0.3932,-0.3936,-0.3939,-0.3938,-0.3942,-0.3945,-0.3959,-0.3958,-0.3958,0,-0.3501,-0.3515,-0.356,-0.3575,-0.3595,-0.3621,-0.364,-0.3674,-0.3693,-0.3734,-0.3746,-0.378,-0.3808,-0.3857,-0.3892,-0.3926,-0.3937,-0.3936,-0.3942,-0.3933,-0.3938,-0.3937,-0.3939,-0.3934,-0.3934,-0.3933,-0.3933,0,-0.3492,-0.3506,-0.3532,-0.3563,-0.3585,-0.3612,-0.364,-0.3652,-0.3692,-0.3712,-0.3744,-0.3766,-0.381,-0.3843,-0.3881,-0.3905,-0.3926,-0.393,-0.3934,-0.3925,-0.3912,-0.392,-0.3927,-0.3931,-0.3931,-0.3931,-0.3931,-0.3931,-0.348,-0.3495,-0.3528,-0.3556,-0.3581,-0.3606,-0.3624,-0.3651,-0.3678,-0.3715,-0.3734,-0.3766,-0.3802,-0.3854,-0.3877,-0.3904,-0.3911,-0.3915,-0.3916,-0.3917,-0.3915,-0.3907,-0.3911,-0.3911,-0.3911,-0.3911,-0.3911,0,-0.3474,-0.3496,-0.3522,-0.3559,-0.3582,-0.3598,-0.363,-0.3648,-0.3675,-0.3706,-0.3733,-0.377,-0.3802,-0.3839,-0.3874,-0.3888,-0.3899,-0.3896,-0.3896,-0.3901,-0.3906,-0.39,-0.3887,-0.3887,-0.3887,-0.3887,-0.3887,-0.3887,-0.3473,-0.3498,-0.3516,-0.3554,-0.3578,-0.3608,-0.3625,-0.3649,-0.3673,-0.3713,-0.3739,-0.3762,-0.3796,-0.3834,-0.3864,-0.3875,-0.3887,-0.3881,-0.3894,-0.3899,-0.3901,-0.3903,-0.3897,-0.3883,-0.3883,-0.3887,-0.3887,-0.3887]}]]